Location: Unspecified
(0.0000°N, 0.0000°E)
Time: 11:36:11
(UTC+00:00)

Explorer 11/Cluster Stage 4 - Pass Details

Date: 01 October 2020
Orbit: 467 x 1258 km, 28.8° (Epoch: 28 October)

Event Time Altitude Azimuth Distance (km) Brightness Sun altitude
Rises 05:56:44 0° 315° (NW) 4,015 9.8 1.8°
Reaches altitude 10° 05:59:42 10° 323° (NW) 3,127 9.3 2.5°
Maximum altitude 06:07:05 40° 30° (NNE) 1,767 8.8 4.4°
Drops below altitude 10° 06:14:37 10° 96° (E) 3,190 12.9 6.2°
Sets 06:17:39 0° 103° (ESE) 4,104 12.5 7.0°
